Torna al catalogo

STARLINK-2504

AttivoComunicazioniVLEO
NORAD 48328·PAYLOAD·🇺🇸 United States

Lanciato Apr 29, 2021 da Cape Canaveral Space Force Station

Loading…

Prossimi Passaggi (prossime 24 ore)

TLE

AggiornatoSource: CelesTrak SupGP

Epoca: Sep 14, 2026, 19:53 UTC

1 48328C 21036BE  26257.82895833 -.00019854  00000+0 -63821-3 0  2573
2 48328  53.1569 300.7768 0001131  80.9821 336.1465 15.31723462    14

Traccia STARLINK-2504 in tempo reale con AllMySat

Download on the App Store